Regional Weather Roundup
Issued by NWS

Home | Current Version | Previous Version | Text Only | Print | Product List | Glossary Off
Versions: 1 2 3 4 5 6 7 8 9 10 11 12 13 14 15 16 17 18 19 20 21 22 23 24 25 26 27 28 29 30 31 32 33 34 35 36 37 38 39 40 41 42 43 44 45 46 47 48 49 50

000
ASUS43 KMPX 260210
RWRMN
WEATHER ROUNDUP FOR MINNESOTA
NATIONAL WEATHER SERVICE TWIN CITIES/CHANHASSEN MN
900 PM CDT WED MAY 25 2016


NOTE: "FAIR" INDICATES FEW OR NO CLOUDS BELOW 12,000 FEET WITH NO
SIGNIFICANT WEATHER AND/OR OBSTRUCTIONS TO VISIBILITY. N/A MEANS
CURRENT SKY AND/OR WEATHER CONDITIONS ARE NOT AVAILABLE.

MNZ060>063-068>070-260300-
   Twin Cities Metro

CITY           SKY/WX    TMP DP  RH WIND       PRES   REMARKS
TWIN CITIES    PTCLDY    72  62  71 E10       29.80S
ST PAUL        CLEAR     69  63  81 E8        29.81S
CRYSTAL        CLEAR     71  61  70 E6        29.79S
BLAINE         PTCLDY    70  64  83 E5        29.81S
EDEN PRAIRIE   CLEAR     72  63  73 E7        29.78F
SOUTH ST PAUL  CLEAR     70  63  80 E6        29.80F
LAKE ELMO      FAIR      66  63  88 E3        29.83F
$$
MNZ001>005-007-008-013>017-022>024-027-028-260300-
   Northwest Minnesota

CITY           SKY/WX    TMP DP  RH WIND       PRES   REMARKS
BEMIDJI        CLOUDY    60  56  86 SE17      29.76S
HALLOCK        LGT RAIN  59  57  94 E14       29.66F
ROSEAU         LGT RAIN  57  54  88 E17G24    29.71F
WARROAD        RAIN      57  54  88 E22G28    29.74F
THIEF RVR FALL CLOUDY    63  57  82 S15G21    29.68S
CROOKSTON      PTCLDY    61  61 100 SW13      29.69R
FOSSTON        CLEAR     61  57  88 S14       29.73R
DETROIT LAKES  CLEAR     63  59  88 S5        29.77R
MOORHEAD       CLEAR     64  59  82 SW6       29.75R
PARK RAPIDS    PTCLDY    63  59  87 SE12      29.77S
MAHNOMEN       FAIR      61  59  92 S8        29.74R
$$
MNZ006-009>011-018-025>026-260300-
   North Central Minnesota

CITY           SKY/WX    TMP DP  RH WIND       PRES   REMARKS
BAUDETTE       RAIN      58  56  93 E22       29.76F
FLAG ISLAND    RAIN      59  57  94 E10G20    29.79F
INTL FALLS     LGT RAIN  59  53  80 E10       29.81S
WASKISH        CLOUDY    61  57  88 E13G18    29.76S
BIG FORK       CLOUDY    61  54  77 SE8       29.81F
LONGVILLE      CLOUDY    59  54  82 SE10G17   29.81S
GRAND RAPIDS   CLOUDY    56  52  86 E8G16     29.85F
CRANE LAKE     CLOUDY    61  50  67 CALM      29.87S
ORR            CLOUDY    59  48  67 SE6       29.82F
COOK           CLOUDY    61  48  63 SE7       29.85F
WALKER         CLOUDY    60  55  85 SE8       29.79S
$$
MNZ012-019>021-037-260300-
   Northeast Minnesota

CITY           SKY/WX    TMP DP  RH WIND       PRES   REMARKS
DULUTH         CLOUDY    48  46  93 E15       29.88F
ELY            CLOUDY    59  46  63 E7        29.88F
HIBBING        CLOUDY    54  52  93 SE6       29.86S
EVELETH        PTCLDY    54  50  87 E5        29.87F
DULUTH HARBOR  CLOUDY    45  43  93 NE10      29.92F
TWO HARBORS    CLOUDY    54  48  82 NE7       29.89S
SILVER BAY     LGT RAIN  50  46  87 N8G17     29.90R
GRAND MARAIS     N/A     49  43  80 NE7       29.94R
G MARAIS ARPRT CLOUDY    54  43  66 N5        29.98R
$$
MNZ029>031-032-039>041-046>048-054>057-064-260300-
   West Central Minnesota

CITY           SKY/WX    TMP DP  RH WIND       PRES   REMARKS
FERGUS FALLS   CLEAR     64  61  88 CALM      29.71F
WHEATON        CLEAR     70  64  83 CALM      29.76R
MORRIS         CLEAR     72  55  56 SW8       29.75R
ALEXANDRIA     CLEAR     70  57  63 SW5       29.78R
ELBOW LAKE     FAIR      67  62  83 CALM      29.76R
WADENA         PTCLDY    64  61  88 E9        29.77R
GLENWOOD       PTCLDY    68  61  77 SW5       29.78R
APPLETON       CLEAR     72  57  60 SW5       29.76R
ORTONVILLE     CLEAR     72  55  56 SW7       29.76R
MADISON        CLEAR     70  54  56 W5        29.77R
WILLMAR        FAIR      72  63  73 W3        29.78R
$$
MNZ033>034-036-042>043-049>051-058-059-260300-
   Central Minnesota

CITY           SKY/WX    TMP DP  RH WIND       PRES   REMARKS
ST CLOUD       CLOUDY    63  61  93 N14G20    29.80R
SAUK CENTRE    FAIR      67  61  82 CALM      29.78R
PAYNESVILLE    MOCLDY    72  64  77 CALM      29.78R
AITKIN         CLOUDY    57  50  77 E10       29.83S
PINE RIVER     CLOUDY    59  55  88 SE10G21   29.84S
BRAINERD       CLOUDY    57  54  89 SE8       29.81F
STAPLES        CLOUDY    61  57  88 E9        29.80R
LONG PRAIRIE   MOCLDY    64  63  94 NE13      29.79R
LITTLE FALLS   CLOUDY    55  55 100 E5        29.79F
LITCHFIELD     CLEAR     70  66  88 CALM      29.78S
BUFFALO        CLEAR     70  64  80 E5        29.80S
MAPLE LAKE     CLEAR     72  66  82 SE5       29.80R
HUTCHINSON     CLEAR     73  64  74 CALM      29.79S
$$
MNZ037-044-045-052-053-260300-
   East Central Minnesota

CITY           SKY/WX    TMP DP  RH WIND       PRES   REMARKS
PRINCETON      CLOUDY    63  61  94 NE9       29.82F
MORA           MOCLDY    55  54  94 E7        29.86S
CAMBRIDGE      LGT RAIN  64  55  72 E7        29.81F
RUSH CITY      CLOUDY    60  57  91 NE6       29.84F
MOOSE LAKE     CLOUDY    46  45  93 E5        29.84F FOG
HINCKLEY       CLOUDY    55  54  94 E8        29.85F
CLOQUET        CLOUDY    46  45  93 E10       29.87F FOG
MCGREGOR       CLOUDY    52  50  93 E7        29.86F
$$
MNZ071>073-080-081-089-090-097-098-260300-
   Southwest Minnesota

CITY           SKY/WX    TMP DP  RH WIND       PRES   REMARKS
MONTEVIDEO     PTCLDY    75  55  50 NW3       29.79R
GRANITE FALLS  CLEAR     75  59  57 SW5       29.79R
CANBY          PTCLDY    73  60  64 SW5       29.79R
MARSHALL       CLEAR     73  60  63 W6        29.79R
REDWOOD FALLS  CLEAR     73  60  63 SW6       29.77S
OLIVIA         CLEAR     70  61  73 SW5       29.77R
PIPESTONE      CLOUDY    70  63  78 W3        29.81R VSB 1
WINDOM         CLEAR     73  61  64 CALM      29.80R
WORTHINGTON    CLEAR     73  62  68 CALM      29.81R
JACKSON        CLEAR     73  55  53 SE3       29.81S
TRACY          CLEAR     73  62  68 CALM      29.79R
SLAYTON        CLEAR     69  61  75 SW6       29.81R
$$
MNZ065>067-074>077-082>085-091>093-260300-
   South Central Minnesota

CITY           SKY/WX    TMP DP  RH WIND       PRES   REMARKS
MANKATO        CLEAR     75  57  53 CALM      29.80S
NEW ULM        CLEAR     72  61  68 SW6       29.78S
ST JAMES       CLEAR     68  61  77 CALM      29.80S
FAIRMONT       CLEAR     73  52  46 S3        29.80S
GLENCOE        CLEAR     73  66  78 S3        29.78S
FARIBAULT      CLEAR     72  63  73 E3        29.81R
OWATONNA       CLEAR     72  63  73 NE3       29.81S
WASECA         CLEAR     72  63  73 W3        29.82S
ALBERT LEA     CLEAR     72  61  68 CALM      29.82R
$$
MNZ078>079-086>088-094>096-260300-
   Southeast Minnesota

CITY           SKY/WX    TMP DP  RH WIND       PRES   REMARKS
ROCHESTER      CLEAR     70  66  87 S5        29.84R
RED WING       CLEAR     70  64  83 CALM      29.81S
STANTON        CLEAR     71  64  80 E6        29.80R
DODGE CENTER   CLEAR     70  63  78 S3        29.83S
WINONA         CLEAR     70  64  83 CALM      29.83R
AUSTIN         PTCLDY    72  63  73 S3        29.83R
PRESTON        CLEAR     70  61  73 CALM      29.85R
$$
ABBREVIATIONS USED IN REMARKS
   TC - TEMPERATURES IN CELSIUS
  WCI - WIND CHILL INDEX
   HX - HEAT INDEX
  VSB - VISIBILITY
$$




USA.gov is the U.S. government's official web portal to all federal, state and local government web resources and services.